Location: Bailen
(14.1842°N, 120.7958°E)
Time: 17:01:02
(UTC+00:00)

MAQSAT/ARIANE V - Pass Details

Date: 12 January 2026
Orbit: 259 x 31466 km, 6.9° (Epoch: 17 February)

Event Time Altitude Azimuth Distance (km) Brightness Sun altitude
Exits shadow 20:54:36 23° 217° (SW) 1,314 3.5 -21.3°
Maximum altitude 20:56:36 39° 161° (SSE) 1,302 3.9 -20.9°
Drops below altitude 10° 21:09:26 10° 97° (E) 6,704 8.5 -17.9°
Sets 21:24:40 0° 92° (E) 12,239 10.2 -14.4°
